User: anonymous   Login
Location: Columbia
(38.9520°N, 92.3340°W)
Time: 08:02:42
(UTC-05:00)
Language:

Cosmos 158 Rocket - Orbit

View from above orbital plane
View from above orbital plane
View from above satellite
View from above satellite

Ground track
Ground track

The orbit data is extracted from the following two-line orbital elements,

1 02802U 67045B   16211.83929176  .00000075  00000-0  29500-4 0  9992
2 02802  74.0113  46.7319 0066713 179.4753 180.6487 14.43588521582469
Epoch (UTC): 29 July 2016 20:08:34
Eccentricity: 0.0066713
inclination: 74.0113°
perigee height: 699 km
apogee height: 794 km
right ascension of ascending node: 46.7319°
argument of perigee: 179.4753°
revolutions per day: 14.43588521
mean anomaly at epoch: 180.6487°
orbit number at epoch: 58246

The dashed part of the orbit path shows where the satellite is in the earth's shadow,  

DLR